| time (UTC) | temp F | wind direction | speed MPH | gust MPH | rain 1hr in | rain 24hr in | rain mn in | humidity % | barometer mb |
| 20260510092618 | 65 | 185 | 1.0 | 3.0 | 0.00 | 0.00 | 0.00 | 63 | 1009.5 |
| 20260510091619 | 65 | 70 | 3.0 | 6.0 | 0.00 | 0.00 | 0.00 | 63 | 1009.5 |
| 20260510090618 | 65 | 150 | 6.0 | 9.0 | 0.00 | 0.00 | 0.00 | 62 | 1009.5 |
| 20260510085618 | 65 | 154 | 3.0 | 3.0 | 0.00 | 0.00 | 0.00 | 62 | 1009.8 |
| 20260510084618 | 66 | 166 | 3.0 | 3.0 | 0.00 | 0.00 | 0.00 | 62 | 1009.5 |
| 20260510083618 | 65 | 127 | 2.0 | 4.0 | 0.00 | 0.00 | 0.00 | 63 | 1009.5 |
| 20260510082618 | 65 | 27 | 4.0 | 4.0 | 0.00 | 0.00 | 0.00 | 65 | 1009.5 |
| 20260510081618 | 65 | 29 | 1.0 | 2.0 | 0.00 | 0.00 | 0.00 | 64 | 1009.5 |
| 20260510080618 | 65 | 206 | 2.0 | 2.0 | 0.00 | 0.00 | 0.00 | 64 | 1009.5 |
| 20260510075618 | 64 | 87 | 1.0 | 3.0 | 0.00 | 0.00 | 0.00 | 67 | 1009.5 |
| 20260510074618 | 64 | 149 | 3.0 | 4.0 | 0.00 | 0.00 | 0.00 | 65 | 1009.1 |
| 20260510073618 | 65 | 0 | 3.0 | 3.0 | 0.00 | 0.00 | 0.00 | 62 | 1009.1 |
| 20260510072618 | 65 | 129 | 5.0 | 6.0 | 0.00 | 0.00 | 0.00 | 62 | 1009.5 |
| 20260510071618 | 64 | 193 | 2.0 | 2.0 | 0.00 | 0.00 | 0.00 | 62 | 1009.1 |
| 20260510070618 | 64 | 201 | 4.0 | 4.0 | 0.00 | 0.00 | 0.00 | 61 | 1009.1 |
| 20260510065618 | 65 | 165 | 5.0 | 10.0 | 0.00 | 0.00 | 0.00 | 60 | 1009.1 |
| 20260510064618 | 65 | 66 | 3.0 | 3.0 | 0.00 | 0.00 | 0.00 | 60 | 1009.1 |
| 20260510063618 | 66 | 340 | 3.0 | 3.0 | 0.00 | 0.00 | 0.00 | 59 | 1009.1 |
| 20260510062618 | 66 | 173 | 3.0 | 6.0 | 0.00 | 0.00 | 0.00 | 60 | 1009.1 |
| 20260510061618 | 66 | 135 | 4.0 | 7.0 | 0.00 | 0.00 | 0.00 | 57 | 1009.1 |
| 20260510060618 | 66 | 155 | 3.0 | 3.0 | 0.00 | 0.00 | 0.00 | 57 | 1009.1 |
| 20260510055618 | 65 | 167 | 3.0 | 3.0 | 0.00 | 0.00 | 0.00 | 60 | 1009.1 |
| 20260510054618 | 65 | 277 | 3.0 | 4.0 | 0.00 | 0.00 | 0.00 | 60 | 1008.8 |
| 20260510053618 | 65 | 232 | 3.0 | 3.0 | 0.00 | 0.00 | 0.00 | 59 | 1008.8 |
| 20260510052618 | 64 | 227 | 5.0 | 8.0 | 0.00 | 0.00 | 0.00 | 60 | 1008.8 |
| 20260510051618 | 65 | 217 | 1.0 | 2.0 | 0.00 | 0.00 | 0.00 | 59 | 1008.8 |
| 20260510050618 | 64 | 305 | 1.0 | 2.0 | 0.00 | 0.00 | 0.00 | 59 | 1008.8 |
| 20260510045618 | 64 | 128 | 3.0 | 3.0 | 0.00 | 0.00 | 0.00 | 60 | 1008.8 |
| 20260510044618 | 64 | 131 | 7.0 | 9.0 | 0.00 | 0.00 | 0.00 | 58 | 1008.8 |
| 20260510043618 | 64 | 197 | 2.0 | 3.0 | 0.00 | 0.00 | 0.00 | 58 | 1008.5 |
| 20260510042618 | 65 | 153 | 2.0 | 5.0 | 0.00 | 0.00 | 0.00 | 58 | 1008.5 |
| 20260510041618 | 65 | 99 | 3.0 | 7.0 | 0.00 | 0.00 | 0.00 | 57 | 1008.8 |
| 20260510040618 | 65 | 156 | 3.0 | 6.0 | 0.00 | 0.00 | 0.00 | 56 | 1008.8 |
| 20260510035618 | 65 | 54 | 1.0 | 1.0 | 0.00 | 0.00 | 0.00 | 56 | 1008.8 |
| 20260510034618 | 65 | 173 | 2.0 | 2.0 | 0.00 | 0.00 | 0.00 | 56 | 1008.8 |
| 20260510033618 | 66 | 13 | 3.0 | 10.0 | 0.00 | 0.00 | 0.00 | 55 | 1009.1 |
| 20260510032618 | 66 | 241 | 2.0 | 4.0 | 0.00 | 0.00 | 0.00 | 56 | 1009.1 |
| 20260510031618 | 65 | 109 | 1.0 | 2.0 | 0.00 | 0.00 | 0.00 | 56 | 1009.1 |
| 20260510030618 | 65 | 21 | 4.0 | 4.0 | 0.00 | 0.00 | 0.00 | 56 | 1009.1 |
| 20260510025618 | 66 | 347 | 2.0 | 2.0 | 0.00 | 0.00 | 0.00 | 55 | 1009.5 |
| 20260510024618 | 66 | 305 | 6.0 | 7.0 | 0.00 | 0.00 | 0.00 | 54 | 1009.5 |
| 20260510023618 | 66 | 166 | 3.0 | 4.0 | 0.00 | 0.00 | 0.00 | 54 | 1009.5 |
| 20260510022618 | 66 | 355 | 3.0 | 4.0 | 0.00 | 0.00 | 0.00 | 54 | 1009.5 |
| 20260510021621 | 66 | 354 | 4.0 | 4.0 | 0.00 | 0.00 | 0.00 | 53 | 1009.5 |
| 20260510020618 | 67 | 31 | 1.0 | 2.0 | 0.00 | 0.00 | 0.00 | 52 | 1009.5 |
| 20260510015618 | 66 | 183 | 1.0 | 1.0 | 0.00 | 0.00 | 0.00 | 52 | 1009.5 |
| 20260510014618 | 67 | 230 | 3.0 | 10.0 | 0.00 | 0.00 | 0.00 | 52 | 1009.5 |
| 20260510013618 | 67 | 61 | 3.0 | 3.0 | 0.00 | 0.00 | 0.00 | 52 | 1009.5 |
| 20260510012618 | 67 | 39 | 2.0 | 3.0 | 0.00 | 0.00 | 0.00 | 52 | 1009.5 |
| 20260510011618 | 67 | 126 | 1.0 | 3.0 | 0.00 | 0.00 | 0.00 | 52 | 1009.5 |
| 20260510010618 | 67 | 217 | 1.0 | 1.0 | 0.00 | 0.00 | 0.00 | 51 | 1009.5 |
| 20260510005618 | 67 | 42 | 4.0 | 5.0 | 0.00 | 0.00 | 0.00 | 50 | 1009.5 |
| 20260510004618 | 67 | 152 | 3.0 | 4.0 | 0.00 | 0.00 | 0.00 | 50 | 1009.5 |
| 20260510003619 | 67 | 215 | 3.0 | 7.0 | 0.00 | 0.00 | 0.00 | 51 | 1009.5 |
| 20260510002618 | 67 | 187 | 3.0 | 5.0 | 0.00 | 0.00 | 0.00 | 50 | 1009.8 |
| 20260510001618 | 67 | 329 | 3.0 | 4.0 | 0.00 | 0.00 | 0.00 | 50 | 1009.8 |
| 20260510000618 | 67 | 185 | 2.0 | 3.0 | 0.00 | 0.00 | 0.00 | 47 | 1010.2 |
| 20260509235618 | 68 | 181 | 1.0 | 2.0 | 0.00 | 0.00 | 0.00 | 46 | 1010.2 |
| 20260509234618 | 68 | 2 | 1.0 | 2.0 | 0.00 | 0.00 | 0.00 | 46 | 1010.2 |
| 20260509233618 | 68 | 338 | 4.0 | 5.0 | 0.00 | 0.00 | 0.00 | 45 | 1010.2 |
| 20260509232618 | 68 | 19 | 2.0 | 4.0 | 0.00 | 0.00 | 0.00 | 46 | 1010.2 |
| 20260509231618 | 69 | 333 | 6.0 | 8.0 | 0.00 | 0.00 | 0.00 | 45 | 1009.8 |
| 20260509230618 | 69 | 272 | 3.0 | 4.0 | 0.00 | 0.00 | 0.00 | 44 | 1010.2 |
| 20260509225618 | 69 | 153 | 3.0 | 5.0 | 0.00 | 0.00 | 0.00 | 42 | 1010.2 |
| 20260509224618 | 69 | 28 | 5.0 | 7.0 | 0.00 | 0.00 | 0.00 | 42 | 1010.2 |
| 20260509223618 | 69 | 13 | 5.0 | 7.0 | 0.00 | 0.00 | 0.00 | 40 | 1010.2 |
| 20260509222618 | 68 | 271 | 2.0 | 2.0 | 0.00 | 0.00 | 0.00 | 43 | 1010.5 |
| 20260509221618 | 68 | 204 | 3.0 | 3.0 | 0.00 | 0.00 | 0.00 | 44 | 1010.8 |
| 20260509220618 | 69 | 225 | 2.0 | 2.0 | 0.00 | 0.00 | 0.00 | 41 | 1010.8 |
| 20260509215618 | 69 | 350 | 2.0 | 2.0 | 0.00 | 0.00 | 0.00 | 42 | 1010.8 |
| 20260509214618 | 69 | 175 | 2.0 | 2.0 | 0.00 | 0.00 | 0.00 | 42 | 1010.5 |
| 20260509213618 | 69 | 35 | 3.0 | 3.0 | 0.00 | 0.00 | 0.00 | 42 | 1010.2 |
| 20260509212616 | 69 | 133 | 6.0 | 8.0 | 0.00 | 0.00 | 0.00 | 43 | 1010.2 |
| 20260509211616 | 69 | 348 | 5.0 | 6.0 | 0.00 | 0.00 | 0.00 | 44 | 1010.2 |
| 20260509210616 | 69 | 333 | 4.0 | 5.0 | 0.00 | 0.00 | 0.00 | 44 | 1010.2 |
| 20260509205615 | 68 | 171 | 2.0 | 2.0 | 0.00 | 0.00 | 0.00 | 45 | 1010.2 |
| 20260509204616 | 68 | 359 | 9.0 | 10.0 | 0.00 | 0.00 | 0.00 | 46 | 1010.5 |
| 20260509203615 | 68 | 300 | 3.0 | 4.0 | 0.00 | 0.00 | 0.00 | 47 | 1011.2 |
| 20260509202616 | 68 | 231 | 6.0 | 8.0 | 0.00 | 0.00 | 0.00 | 47 | 1011.2 |
| 20260509201615 | 68 | 287 | 3.0 | 3.0 | 0.00 | 0.00 | 0.00 | 48 | 1011.2 |
| 20260509200615 | 68 | 64 | 4.0 | 11.0 | 0.00 | 0.00 | 0.00 | 48 | 1011.2 |
| 20260509195615 | 67 | 13 | 3.0 | 4.0 | 0.00 | 0.00 | 0.00 | 49 | 1011.2 |
| 20260509194616 | 67 | 194 | 0.0 | 1.0 | 0.00 | 0.00 | 0.00 | 49 | 1011.2 |
| 20260509193615 | 67 | 10 | 4.0 | 7.0 | 0.00 | 0.00 | 0.00 | 48 | 1010.8 |
| 20260509192616 | 67 | 142 | 0.0 | 1.0 | 0.00 | 0.00 | 0.00 | 48 | 1010.8 |
| 20260509191615 | 67 | 191 | 2.0 | 2.0 | 0.00 | 0.00 | 0.00 | 47 | 1010.8 |
| 20260509190615 | 67 | 180 | 2.0 | 2.0 | 0.00 | 0.00 | 0.00 | 47 | 1010.8 |
| 20260509185615 | 66 | 184 | 0.0 | 1.0 | 0.00 | 0.00 | 0.00 | 50 | 1010.8 |
| 20260509184615 | 67 | 190 | 1.0 | 2.0 | 0.00 | 0.00 | 0.00 | 48 | 1010.5 |
| 20260509183615 | 67 | 184 | 1.0 | 1.0 | 0.00 | 0.00 | 0.00 | 49 | 1010.2 |
| 20260509182615 | 67 | 134 | 3.0 | 4.0 | 0.00 | 0.00 | 0.00 | 51 | 1010.2 |
| 20260509181615 | 67 | 203 | 1.0 | 1.0 | 0.00 | 0.00 | 0.00 | 49 | 1010.2 |
| 20260509180615 | 68 | 183 | 2.0 | 3.0 | 0.00 | 0.00 | 0.00 | 50 | 1010.2 |
| 20260509175615 | 67 | 178 | 1.0 | 2.0 | 0.00 | 0.00 | 0.00 | 53 | 1010.2 |
| 20260509174615 | 67 | 236 | 1.0 | 2.0 | 0.00 | 0.00 | 0.00 | 54 | 1010.2 |
| 20260509173615 | 68 | 206 | 0.0 | 0.0 | 0.00 | 0.00 | 0.00 | 54 | 1010.2 |
| 20260509172615 | 67 | 321 | 2.0 | 3.0 | 0.00 | 0.00 | 0.00 | 58 | 1010.2 |
| 20260509171615 | 67 | 198 | 0.0 | 1.0 | 0.00 | 0.00 | 0.00 | 62 | 1010.2 |
| 20260509170615 | 68 | 200 | 2.0 | 2.0 | 0.00 | 0.00 | 0.00 | 62 | 1010.2 |
| 20260509165618 | 68 | 191 | 1.0 | 1.0 | 0.00 | 0.00 | 0.00 | 61 | 1010.2 |
| 20260509164615 | 68 | 215 | 0.0 | 2.0 | 0.00 | 0.00 | 0.00 | 58 | 1010.2 |
| 20260509163615 | 69 | 205 | 1.0 | 1.0 | 0.00 | 0.00 | 0.00 | 53 | 1010.2 |
| 20260509162615 | 69 | 87 | 2.0 | 3.0 | 0.00 | 0.00 | 0.00 | 48 | 1010.5 |
| 20260509161615 | 69 | 97 | 2.0 | 2.0 | 0.00 | 0.00 | 0.00 | 50 | 1010.5 |
| 20260509160615 | 69 | 171 | 3.0 | 3.0 | 0.00 | 0.00 | 0.00 | 53 | 1010.5 |
| 20260509155615 | 69 | 180 | 3.0 | 3.0 | 0.00 | 0.00 | 0.00 | 47 | 1010.5 |
| 20260509154615 | 69 | 158 | 3.0 | 4.0 | 0.00 | 0.00 | 0.00 | 46 | 1010.8 |
| 20260509153615 | 69 | 180 | 3.0 | 9.0 | 0.00 | 0.00 | 0.00 | 50 | 1010.8 |
| 20260509152615 | 70 | 174 | 3.0 | 6.0 | 0.00 | 0.00 | 0.00 | 50 | 1011.2 |
| 20260509151615 | 70 | 85 | 1.0 | 2.0 | 0.00 | 0.00 | 0.00 | 54 | 1011.2 |
| 20260509150615 | 70 | 201 | 3.0 | 3.0 | 0.00 | 0.00 | 0.00 | 55 | 1011.5 |
| 20260509145615 | 70 | 168 | 1.0 | 3.0 | 0.00 | 0.00 | 0.00 | 55 | 1011.5 |
| 20260509144615 | 70 | 145 | 2.0 | 3.0 | 0.00 | 0.00 | 0.00 | 55 | 1011.9 |
| 20260509143619 | 70 | 200 | 3.0 | 3.0 | 0.00 | 0.00 | 0.00 | 55 | 1011.9 |
| 20260509142615 | 70 | 178 | 4.0 | 4.0 | 0.00 | 0.00 | 0.00 | 56 | 1011.9 |
| 20260509141615 | 71 | 208 | 2.0 | 3.0 | 0.00 | 0.00 | 0.00 | 56 | 1011.9 |
| 20260509140615 | 71 | 189 | 2.0 | 2.0 | 0.00 | 0.00 | 0.00 | 57 | 1012.2 |
| 20260509135615 | 71 | 75 | 0.0 | 2.0 | 0.00 | 0.00 | 0.00 | 58 | 1012.2 |
| 20260509134615 | 71 | 182 | 2.0 | 3.0 | 0.00 | 0.00 | 0.00 | 59 | 1012.5 |
| 20260509133615 | 71 | 136 | 1.0 | 2.0 | 0.00 | 0.00 | 0.00 | 61 | 1012.9 |
| 20260509132615 | 71 | 156 | 3.0 | 4.0 | 0.00 | 0.00 | 0.00 | 61 | 1012.9 |
| 20260509131615 | 71 | 150 | 3.0 | 4.0 | 0.00 | 0.00 | 0.00 | 61 | 1012.9 |
| 20260509130615 | 71 | 137 | 1.0 | 2.0 | 0.00 | 0.00 | 0.00 | 63 | 1012.9 |
| 20260509125615 | 71 | 159 | 3.0 | 3.0 | 0.00 | 0.00 | 0.00 | 63 | 1013.2 |
| 20260509124615 | 71 | 108 | 3.0 | 5.0 | 0.00 | 0.00 | 0.00 | 61 | 1013.2 |
| 20260509123615 | 72 | 192 | 2.0 | 2.0 | 0.00 | 0.00 | 0.00 | 60 | 1012.9 |
| 20260509122616 | 71 | 133 | 3.0 | 3.0 | 0.00 | 0.00 | 0.00 | 62 | 1012.9 |
| 20260509121615 | 71 | 106 | 2.0 | 2.0 | 0.00 | 0.00 | 0.00 | 63 | 1013.2 |
| 20260509120615 | 71 | 103 | 2.0 | 5.0 | 0.00 | 0.00 | 0.00 | 65 | 1013.2 |
| 20260509115615 | 71 | 215 | 3.0 | 3.0 | 0.00 | 0.00 | 0.00 | 62 | 1013.5 |
| 20260509114620 | 71 | 196 | 3.0 | 4.0 | 0.00 | 0.00 | 0.00 | 63 | 1013.5 |
| 20260509113615 | 71 | 200 | 4.0 | 4.0 | 0.00 | 0.00 | 0.00 | 63 | 1013.5 |
| 20260509112615 | 71 | 168 | 1.0 | 2.0 | 0.00 | 0.00 | 0.00 | 65 | 1013.5 |
| 20260509111615 | 71 | 135 | 2.0 | 3.0 | 0.00 | 0.00 | 0.00 | 64 | 1013.9 |
| 20260509110615 | 71 | 115 | 3.0 | 3.0 | 0.00 | 0.00 | 0.00 | 63 | 1013.9 |
| 20260509105615 | 72 | 129 | 1.0 | 1.0 | 0.00 | 0.00 | 0.00 | 61 | 1013.9 |
| 20260509104615 | 71 | 70 | 3.0 | 4.0 | 0.00 | 0.00 | 0.00 | 61 | 1013.9 |
| 20260509103615 | 71 | 106 | 3.0 | 3.0 | 0.00 | 0.00 | 0.00 | 58 | 1014.2 |
| 20260509102615 | 71 | 162 | 2.0 | 2.0 | 0.00 | 0.00 | 0.00 | 60 | 1014.2 |
| 20260509101615 | 72 | 110 | 2.0 | 2.0 | 0.00 | 0.00 | 0.00 | 59 | 1014.2 |
| 20260509100615 | 72 | 158 | 2.0 | 3.0 | 0.00 | 0.00 | 0.00 | 60 | 1014.2 |
| 20260509095615 | 72 | 243 | 1.0 | 3.0 | 0.00 | 0.00 | 0.00 | 58 | 1014.2 |
| 20260509094615 | 71 | 100 | 0.0 | 3.0 | 0.00 | 0.00 | 0.00 | 61 | 1014.2 |
| 20260509093615 | 71 | 182 | 3.0 | 4.0 | 0.00 | 0.00 | 0.00 | 59 | 1014.2 |